,Coso Junction,Coso Junction
,PM10_1HR,PM10_1HR
,,
Date,Value,Null Code
01-May-2020 00:00,1.8,
01-May-2020 01:00,7.3,
01-May-2020 02:00,6.2,
01-May-2020 03:00,10.9,
01-May-2020 04:00,17.3,
01-May-2020 05:00,4.7,
01-May-2020 06:00,6.7,
01-May-2020 07:00,5,
01-May-2020 08:00,8.8,
01-May-2020 09:00,9.1,
01-May-2020 10:00,7.5,
01-May-2020 11:00,8.2,
01-May-2020 12:00,7.8,
01-May-2020 13:00,10.4,
01-May-2020 14:00,17.8,
01-May-2020 15:00,10.4,
01-May-2020 16:00,14.6,
01-May-2020 17:00,15.3,
01-May-2020 18:00,17.8,
01-May-2020 19:00,15.9,
01-May-2020 20:00,19.9,
01-May-2020 21:00,16.9,
01-May-2020 22:00,21.2,
01-May-2020 23:00,15.5,
02-May-2020 00:00,16.5,
02-May-2020 01:00,17,
02-May-2020 02:00,15.5,
02-May-2020 03:00,13.4,
02-May-2020 04:00,25.1,
02-May-2020 05:00,18.4,
02-May-2020 06:00,9.5,
02-May-2020 07:00,10.6,
02-May-2020 08:00,10.4,
02-May-2020 09:00,12.5,
02-May-2020 10:00,24.3,
02-May-2020 11:00,14.7,
02-May-2020 12:00,16.3,
02-May-2020 13:00,12.2,
02-May-2020 14:00,19.4,
02-May-2020 15:00,17.4,
02-May-2020 16:00,25.1,
02-May-2020 17:00,22.1,
02-May-2020 18:00,24.4,
02-May-2020 19:00,22.3,
02-May-2020 20:00,21.4,
02-May-2020 21:00,21.3,
02-May-2020 22:00,20.3,
02-May-2020 23:00,19.4,
03-May-2020 00:00,17,
03-May-2020 01:00,16.4,
03-May-2020 02:00,13,
03-May-2020 03:00,14.8,
03-May-2020 04:00,15.9,
03-May-2020 05:00,19,
03-May-2020 06:00,15.1,
03-May-2020 07:00,12,
03-May-2020 08:00,9.5,
03-May-2020 09:00,12.5,
03-May-2020 10:00,10.7,
03-May-2020 11:00,15.2,
03-May-2020 12:00,17.2,
03-May-2020 13:00,22.1,
03-May-2020 14:00,15.9,
03-May-2020 15:00,13.8,
03-May-2020 16:00,14.3,
03-May-2020 17:00,13.5,
03-May-2020 18:00,11.3,
03-May-2020 19:00,12.1,
03-May-2020 20:00,16.3,
03-May-2020 21:00,19.6,
03-May-2020 22:00,77.2,
03-May-2020 23:00,88.7,
04-May-2020 00:00,31,
04-May-2020 01:00,13,
04-May-2020 02:00,12.4,
04-May-2020 03:00,9.7,
04-May-2020 04:00,9,
04-May-2020 05:00,10.1,
04-May-2020 06:00,8.8,
04-May-2020 07:00,8.3,
04-May-2020 08:00,10.2,
04-May-2020 09:00,8.8,
04-May-2020 10:00,4.9,
04-May-2020 11:00,7.5,
04-May-2020 12:00,6.5,
04-May-2020 13:00,4.9,
04-May-2020 14:00,8.3,
04-May-2020 15:00,12,
04-May-2020 16:00,15.1,
04-May-2020 17:00,14.3,
04-May-2020 18:00,34.3,
04-May-2020 19:00,15.1,
04-May-2020 20:00,15.7,
04-May-2020 21:00,12.6,
04-May-2020 22:00,42.4,
04-May-2020 23:00,14.4,
05-May-2020 00:00,14.8,
05-May-2020 01:00,11.9,
05-May-2020 02:00,11.2,
05-May-2020 03:00,9.8,
05-May-2020 04:00,21.6,
05-May-2020 05:00,10.2,
05-May-2020 06:00,15.3,
05-May-2020 07:00,7.6,
05-May-2020 08:00,11,
05-May-2020 09:00,11,
05-May-2020 10:00,10.8,
05-May-2020 11:00,13.3,
05-May-2020 12:00,12.2,
05-May-2020 13:00,15.2,
05-May-2020 14:00,24,
05-May-2020 15:00,19.3,
05-May-2020 16:00,16.9,
05-May-2020 17:00,30.1,
05-May-2020 18:00,28.9,
05-May-2020 19:00,25.9,
05-May-2020 20:00,18.7,
05-May-2020 21:00,16.9,
05-May-2020 22:00,18.7,
05-May-2020 23:00,17,
06-May-2020 00:00,18.7,
06-May-2020 01:00,16.7,
06-May-2020 02:00,16.5,
06-May-2020 03:00,16.6,
06-May-2020 04:00,13.3,
06-May-2020 05:00,59,
06-May-2020 06:00,25.4,
06-May-2020 07:00,13.2,
06-May-2020 08:00,17.1,
06-May-2020 09:00,15.6,
06-May-2020 10:00,11.7,
06-May-2020 11:00,10.3,
06-May-2020 12:00,10.9,
06-May-2020 13:00,14.5,
06-May-2020 14:00,23.5,
06-May-2020 15:00,17.3,
06-May-2020 16:00,20.4,
06-May-2020 17:00,19.9,
06-May-2020 18:00,16.1,
06-May-2020 19:00,15.5,
06-May-2020 20:00,18.7,
06-May-2020 21:00,16.9,
06-May-2020 22:00,20,
06-May-2020 23:00,19.4,
07-May-2020 00:00,21.8,
07-May-2020 01:00,20.3,
07-May-2020 02:00,16.2,
07-May-2020 03:00,14.4,
07-May-2020 04:00,14.7,
07-May-2020 05:00,12.6,
07-May-2020 06:00,12.9,
07-May-2020 07:00,15.2,
07-May-2020 08:00,16,
07-May-2020 09:00,17.5,
07-May-2020 10:00,18.3,
07-May-2020 11:00,13,
07-May-2020 12:00,12,
07-May-2020 13:00,11.9,
07-May-2020 14:00,15.8,
07-May-2020 15:00,16.8,
07-May-2020 16:00,16.5,
07-May-2020 17:00,17.1,
07-May-2020 18:00,16.7,
07-May-2020 19:00,16.9,
07-May-2020 20:00,20.7,
07-May-2020 21:00,15.2,
07-May-2020 22:00,16,
07-May-2020 23:00,17.6,
08-May-2020 00:00,19.1,
08-May-2020 01:00,25,
08-May-2020 02:00,26.5,
08-May-2020 03:00,16.3,
08-May-2020 04:00,15.3,
08-May-2020 05:00,26.4,
08-May-2020 06:00,18,
08-May-2020 07:00,9.6,
08-May-2020 08:00,14,
08-May-2020 09:00,14.2,
08-May-2020 10:00,21,
08-May-2020 11:00,23.6,
08-May-2020 12:00,25.9,
08-May-2020 13:00,21.9,
08-May-2020 14:00,30.8,
08-May-2020 15:00,24.4,
08-May-2020 16:00,18.2,
08-May-2020 17:00,37.1,
08-May-2020 18:00,27.3,
08-May-2020 19:00,26.8,
08-May-2020 20:00,29.5,
08-May-2020 21:00,29.6,
08-May-2020 22:00,26,
08-May-2020 23:00,26.6,
09-May-2020 00:00,28.6,
09-May-2020 01:00,29.2,
09-May-2020 02:00,24.6,
09-May-2020 03:00,28.9,
09-May-2020 04:00,26.4,
09-May-2020 05:00,23.8,
09-May-2020 06:00,14,
09-May-2020 07:00,14.8,
09-May-2020 08:00,15.9,
09-May-2020 09:00,19.1,
09-May-2020 10:00,19.1,
09-May-2020 11:00,28.2,
09-May-2020 12:00,26.5,
09-May-2020 13:00,14.4,
09-May-2020 14:00,12.3,
09-May-2020 15:00,12.8,
09-May-2020 16:00,15.3,
09-May-2020 17:00,12.5,
09-May-2020 18:00,12.1,
09-May-2020 19:00,15.6,
09-May-2020 20:00,14,
09-May-2020 21:00,13.8,
09-May-2020 22:00,13.3,
09-May-2020 23:00,14.1,
10-May-2020 00:00,15.3,
10-May-2020 01:00,17,
10-May-2020 02:00,25.3,
10-May-2020 03:00,26.7,
10-May-2020 04:00,24.7,
10-May-2020 05:00,25.2,
10-May-2020 06:00,36.7,
10-May-2020 07:00,26.4,
10-May-2020 08:00,35.5,
10-May-2020 09:00,32.9,
10-May-2020 10:00,38.4,
10-May-2020 11:00,29.1,
10-May-2020 12:00,27.5,
10-May-2020 13:00,29.8,
10-May-2020 14:00,16.4,
10-May-2020 15:00,16.9,
10-May-2020 16:00,12.5,
10-May-2020 17:00,11.6,
10-May-2020 18:00,10.9,
10-May-2020 19:00,17.5,
10-May-2020 20:00,12.5,
10-May-2020 21:00,18,
10-May-2020 22:00,19.9,
10-May-2020 23:00,21.3,
11-May-2020 00:00,21.1,
11-May-2020 01:00,20.4,
11-May-2020 02:00,18.9,
11-May-2020 03:00,18.7,
11-May-2020 04:00,22.8,
11-May-2020 05:00,24.8,
11-May-2020 06:00,27,
11-May-2020 07:00,18.2,
11-May-2020 08:00,23.1,
11-May-2020 09:00,27.7,
11-May-2020 10:00,17.9,
11-May-2020 11:00,17,
11-May-2020 12:00,19.3,
11-May-2020 13:00,13.4,
11-May-2020 14:00,16.3,
11-May-2020 15:00,12.8,
11-May-2020 16:00,18.1,
11-May-2020 17:00,10.5,
11-May-2020 18:00,11.3,
11-May-2020 19:00,14.7,
11-May-2020 20:00,18.5,
11-May-2020 21:00,18.9,
11-May-2020 22:00,18.8,
11-May-2020 23:00,14.5,
12-May-2020 00:00,13.4,
12-May-2020 01:00,9.9,
12-May-2020 02:00,8.6,
12-May-2020 03:00,9.1,
12-May-2020 04:00,17,
12-May-2020 05:00,22.1,
12-May-2020 06:00,13.4,
12-May-2020 07:00,17.6,
12-May-2020 08:00,15.5,
12-May-2020 09:00,7,
12-May-2020 10:00,4.2,
12-May-2020 11:00,30.9,
12-May-2020 12:00,49.9,
12-May-2020 13:00,81.3,
12-May-2020 14:00,81.3,
12-May-2020 15:00,146.4,
12-May-2020 16:00,43.6,
12-May-2020 17:00,17.5,
12-May-2020 18:00,26.3,
12-May-2020 19:00,18.6,
12-May-2020 20:00,18,
12-May-2020 21:00,17.3,
12-May-2020 22:00,17.1,
12-May-2020 23:00,16.7,
13-May-2020 00:00,16.2,
13-May-2020 01:00,15.9,
13-May-2020 02:00,15.9,
13-May-2020 03:00,16.1,
13-May-2020 04:00,18.1,
13-May-2020 05:00,25.4,
13-May-2020 06:00,24.7,
13-May-2020 07:00,,AX
13-May-2020 08:00,,AX
13-May-2020 09:00,,AX
13-May-2020 10:00,,AX
13-May-2020 11:00,15.4,
13-May-2020 12:00,19.1,
13-May-2020 13:00,15.3,
13-May-2020 14:00,21.1,
13-May-2020 15:00,14.2,
13-May-2020 16:00,10.4,
13-May-2020 17:00,12.7,
13-May-2020 18:00,14.4,
13-May-2020 19:00,10.3,
13-May-2020 20:00,13,
13-May-2020 21:00,16.8,
13-May-2020 22:00,14,
13-May-2020 23:00,6.3,
14-May-2020 00:00,6.6,
14-May-2020 01:00,9.7,
14-May-2020 02:00,11.5,
14-May-2020 03:00,19.2,
14-May-2020 04:00,17.8,
14-May-2020 05:00,14.6,
14-May-2020 06:00,11,
14-May-2020 07:00,14.3,
14-May-2020 08:00,33.1,
14-May-2020 09:00,21.5,
14-May-2020 10:00,9.8,
14-May-2020 11:00,14.9,
14-May-2020 12:00,15.6,
14-May-2020 13:00,14.3,
14-May-2020 14:00,23.7,
14-May-2020 15:00,18.7,
14-May-2020 16:00,22.1,
14-May-2020 17:00,21.4,
14-May-2020 18:00,18.4,
14-May-2020 19:00,18.7,
14-May-2020 20:00,16,
14-May-2020 21:00,14.8,
14-May-2020 22:00,14.4,
14-May-2020 23:00,18.3,
15-May-2020 00:00,16.8,
15-May-2020 01:00,20,
15-May-2020 02:00,52.6,
15-May-2020 03:00,25.2,
15-May-2020 04:00,7.9,
15-May-2020 05:00,7.1,
15-May-2020 06:00,7.6,
15-May-2020 07:00,9.8,
15-May-2020 08:00,7.2,
15-May-2020 09:00,10.2,
15-May-2020 10:00,8.8,
15-May-2020 11:00,9.9,
15-May-2020 12:00,11.4,
15-May-2020 13:00,12.9,
15-May-2020 14:00,12.9,
15-May-2020 15:00,13,
15-May-2020 16:00,11.2,
15-May-2020 17:00,11.9,
15-May-2020 18:00,17.3,
15-May-2020 19:00,22.6,
15-May-2020 20:00,18,
15-May-2020 21:00,18.1,
15-May-2020 22:00,13.9,
15-May-2020 23:00,18,
16-May-2020 00:00,17,
16-May-2020 01:00,20,
16-May-2020 02:00,14.2,
16-May-2020 03:00,12.2,
16-May-2020 04:00,12.1,
16-May-2020 05:00,10,
16-May-2020 06:00,9.9,
16-May-2020 07:00,9.7,
16-May-2020 08:00,15.5,
16-May-2020 09:00,13.6,
16-May-2020 10:00,14.5,
16-May-2020 11:00,14.5,
16-May-2020 12:00,12.7,
16-May-2020 13:00,22,
16-May-2020 14:00,20.1,
16-May-2020 15:00,16.3,
16-May-2020 16:00,15.8,
16-May-2020 17:00,24.1,
16-May-2020 18:00,19.6,
16-May-2020 19:00,18.8,
16-May-2020 20:00,19.7,
16-May-2020 21:00,18.9,
16-May-2020 22:00,20.2,
16-May-2020 23:00,25.4,
17-May-2020 00:00,20.7,
17-May-2020 01:00,19.2,
17-May-2020 02:00,18.4,
17-May-2020 03:00,18.1,
17-May-2020 04:00,21.8,
17-May-2020 05:00,21,
17-May-2020 06:00,19,
17-May-2020 07:00,16.6,
17-May-2020 08:00,20.5,
17-May-2020 09:00,19.9,
17-May-2020 10:00,12.1,
17-May-2020 11:00,20,
17-May-2020 12:00,12.3,
17-May-2020 13:00,17.6,
17-May-2020 14:00,18.5,
17-May-2020 15:00,17.8,
17-May-2020 16:00,24.5,
17-May-2020 17:00,15.4,
17-May-2020 18:00,18.8,
17-May-2020 19:00,21.5,
17-May-2020 20:00,22.8,
17-May-2020 21:00,13.6,
17-May-2020 22:00,10,
17-May-2020 23:00,9,
18-May-2020 00:00,10.8,
18-May-2020 01:00,11.7,
18-May-2020 02:00,8.5,
18-May-2020 03:00,12.7,
18-May-2020 04:00,15.5,
18-May-2020 05:00,29.3,
18-May-2020 06:00,3.9,
18-May-2020 07:00,12,
18-May-2020 08:00,3.8,
18-May-2020 09:00,9.1,
18-May-2020 10:00,7.2,
18-May-2020 11:00,14.2,
18-May-2020 12:00,0.9,
18-May-2020 13:00,11.5,
18-May-2020 14:00,6.4,
18-May-2020 15:00,4.4,
18-May-2020 16:00,7.2,
18-May-2020 17:00,14.9,
18-May-2020 18:00,6.1,
18-May-2020 19:00,10.6,
18-May-2020 20:00,16.9,
18-May-2020 21:00,9.8,
18-May-2020 22:00,5.8,
18-May-2020 23:00,6.1,
19-May-2020 00:00,3,
19-May-2020 01:00,9.5,
19-May-2020 02:00,4.1,
19-May-2020 03:00,5.2,
19-May-2020 04:00,13.8,
19-May-2020 05:00,9,
19-May-2020 06:00,8.3,
19-May-2020 07:00,4.1,
19-May-2020 08:00,4.9,
19-May-2020 09:00,6.6,
19-May-2020 10:00,3.9,
19-May-2020 11:00,6.9,
19-May-2020 12:00,6.6,
19-May-2020 13:00,8.5,
19-May-2020 14:00,6.2,
19-May-2020 15:00,18.9,
19-May-2020 16:00,18.3,
19-May-2020 17:00,5,
19-May-2020 18:00,6.1,
19-May-2020 19:00,12.7,
19-May-2020 20:00,9.5,
19-May-2020 21:00,8.6,
19-May-2020 22:00,8.7,
19-May-2020 23:00,10.9,
20-May-2020 00:00,12.9,
20-May-2020 01:00,12.5,
20-May-2020 02:00,11.2,
20-May-2020 03:00,10.8,
20-May-2020 04:00,18.8,
20-May-2020 05:00,42.2,
20-May-2020 06:00,19.7,
20-May-2020 07:00,10.4,
20-May-2020 08:00,6.4,
20-May-2020 09:00,5.4,
20-May-2020 10:00,5.9,
20-May-2020 11:00,6.6,
20-May-2020 12:00,5.4,
20-May-2020 13:00,7,
20-May-2020 14:00,8.8,
20-May-2020 15:00,11.6,
20-May-2020 16:00,14.9,
20-May-2020 17:00,12.1,
20-May-2020 18:00,22.8,
20-May-2020 19:00,11,
20-May-2020 20:00,24.2,
20-May-2020 21:00,19.2,
20-May-2020 22:00,14.9,
20-May-2020 23:00,12.8,
21-May-2020 00:00,13.3,
21-May-2020 01:00,12.4,
21-May-2020 02:00,13.4,
21-May-2020 03:00,11.8,
21-May-2020 04:00,17.5,
21-May-2020 05:00,13.7,
21-May-2020 06:00,15.2,
21-May-2020 07:00,9.1,
21-May-2020 08:00,9.5,
21-May-2020 09:00,5.7,
21-May-2020 10:00,15.5,
21-May-2020 11:00,7.4,
21-May-2020 12:00,11.5,
21-May-2020 13:00,5.4,
21-May-2020 14:00,16.7,
21-May-2020 15:00,18.5,
21-May-2020 16:00,18.4,
21-May-2020 17:00,26.2,
21-May-2020 18:00,29.2,
21-May-2020 19:00,9.7,
21-May-2020 20:00,15.3,
21-May-2020 21:00,13.9,
21-May-2020 22:00,16.9,
21-May-2020 23:00,14.7,
22-May-2020 00:00,14.4,
22-May-2020 01:00,16.2,
22-May-2020 02:00,16.9,
22-May-2020 03:00,14.6,
22-May-2020 04:00,23.2,
22-May-2020 05:00,28.5,
22-May-2020 06:00,25.8,
22-May-2020 07:00,8,
22-May-2020 08:00,12.9,
22-May-2020 09:00,13.1,
22-May-2020 10:00,14.5,
22-May-2020 11:00,13.6,
22-May-2020 12:00,16.3,
22-May-2020 13:00,27.6,
22-May-2020 14:00,29,
22-May-2020 15:00,38.9,
22-May-2020 16:00,56.1,
22-May-2020 17:00,48.4,
22-May-2020 18:00,35.2,
22-May-2020 19:00,33.2,
22-May-2020 20:00,13.4,
22-May-2020 21:00,17.8,
22-May-2020 22:00,17.8,
22-May-2020 23:00,49.1,
23-May-2020 00:00,69.5,
23-May-2020 01:00,50.9,
23-May-2020 02:00,35.5,
23-May-2020 03:00,15.9,
23-May-2020 04:00,15.3,
23-May-2020 05:00,15.3,
23-May-2020 06:00,16.2,
23-May-2020 07:00,16.7,
23-May-2020 08:00,14.4,
23-May-2020 09:00,11.7,
23-May-2020 10:00,10.3,
23-May-2020 11:00,8.5,
23-May-2020 12:00,7.3,
23-May-2020 13:00,8.7,
23-May-2020 14:00,7.3,
23-May-2020 15:00,8.1,
23-May-2020 16:00,8.8,
23-May-2020 17:00,14.5,
23-May-2020 18:00,14.2,
23-May-2020 19:00,12.7,
23-May-2020 20:00,13.9,
23-May-2020 21:00,16.1,
23-May-2020 22:00,16.9,
23-May-2020 23:00,16.6,
24-May-2020 00:00,16.6,
24-May-2020 01:00,13.9,
24-May-2020 02:00,15.9,
24-May-2020 03:00,12,
24-May-2020 04:00,12.9,
24-May-2020 05:00,11.3,
24-May-2020 06:00,9.9,
24-May-2020 07:00,6.7,
24-May-2020 08:00,9.7,
24-May-2020 09:00,10.1,
24-May-2020 10:00,7.6,
24-May-2020 11:00,8.5,
24-May-2020 12:00,8.8,
24-May-2020 13:00,11.3,
24-May-2020 14:00,8.7,
24-May-2020 15:00,9,
24-May-2020 16:00,11.1,
24-May-2020 17:00,13.6,
24-May-2020 18:00,18,
24-May-2020 19:00,26.7,
24-May-2020 20:00,19.3,
24-May-2020 21:00,20.7,
24-May-2020 22:00,21.7,
24-May-2020 23:00,23.3,
25-May-2020 00:00,17.3,
25-May-2020 01:00,13.9,
25-May-2020 02:00,12.3,
25-May-2020 03:00,14,
25-May-2020 04:00,13.6,
25-May-2020 05:00,10.5,
25-May-2020 06:00,10.5,
25-May-2020 07:00,10.1,
25-May-2020 08:00,13.2,
25-May-2020 09:00,13.3,
25-May-2020 10:00,10.2,
25-May-2020 11:00,7.7,
25-May-2020 12:00,8.4,
25-May-2020 13:00,8.5,
25-May-2020 14:00,10.5,
25-May-2020 15:00,11.2,
25-May-2020 16:00,12.3,
25-May-2020 17:00,15.9,
25-May-2020 18:00,17,
25-May-2020 19:00,34.3,
25-May-2020 20:00,40.2,
25-May-2020 21:00,20.7,
25-May-2020 22:00,24.1,
25-May-2020 23:00,20.3,
26-May-2020 00:00,21.3,
26-May-2020 01:00,21.3,
26-May-2020 02:00,20,
26-May-2020 03:00,22.4,
26-May-2020 04:00,20.2,
26-May-2020 05:00,47.3,
26-May-2020 06:00,25.3,
26-May-2020 07:00,18.1,
26-May-2020 08:00,17.8,
26-May-2020 09:00,12.5,
26-May-2020 10:00,8.9,
26-May-2020 11:00,16.9,
26-May-2020 12:00,14,
26-May-2020 13:00,12.5,
26-May-2020 14:00,17.8,
26-May-2020 15:00,16.1,
26-May-2020 16:00,14.9,
26-May-2020 17:00,29.7,
26-May-2020 18:00,20.9,
26-May-2020 19:00,23.4,
26-May-2020 20:00,23,
26-May-2020 21:00,22.5,
26-May-2020 22:00,30.5,
26-May-2020 23:00,41.4,
27-May-2020 00:00,25.8,
27-May-2020 01:00,25.1,
27-May-2020 02:00,18.8,
27-May-2020 03:00,19.2,
27-May-2020 04:00,20.4,
27-May-2020 05:00,18.6,
27-May-2020 06:00,14.4,
27-May-2020 07:00,14.3,
27-May-2020 08:00,13.9,
27-May-2020 09:00,20,
27-May-2020 10:00,12.8,
27-May-2020 11:00,23.1,
27-May-2020 12:00,19.3,
27-May-2020 13:00,16.1,
27-May-2020 14:00,19.7,
27-May-2020 15:00,21.5,
27-May-2020 16:00,28,
27-May-2020 17:00,38.3,
27-May-2020 18:00,12.9,
27-May-2020 19:00,16.9,
27-May-2020 20:00,27.6,
27-May-2020 21:00,19.8,
27-May-2020 22:00,23,
27-May-2020 23:00,98.7,
28-May-2020 00:00,98.7,
28-May-2020 01:00,27.6,
28-May-2020 02:00,23,
28-May-2020 03:00,63.8,
28-May-2020 04:00,23.5,
28-May-2020 05:00,22.2,
28-May-2020 06:00,34.4,
28-May-2020 07:00,34.3,
28-May-2020 08:00,24,
28-May-2020 09:00,7.4,
28-May-2020 10:00,13.9,
28-May-2020 11:00,28.7,
28-May-2020 12:00,7.9,
28-May-2020 13:00,6.8,
28-May-2020 14:00,9.9,
28-May-2020 15:00,18.1,
28-May-2020 16:00,5.5,
28-May-2020 17:00,20.8,
28-May-2020 18:00,34.7,
28-May-2020 19:00,32.2,
28-May-2020 20:00,24.2,
28-May-2020 21:00,21.8,
28-May-2020 22:00,22.6,
28-May-2020 23:00,38.6,
29-May-2020 00:00,37.6,
29-May-2020 01:00,24.8,
29-May-2020 02:00,25.3,
29-May-2020 03:00,26.6,
29-May-2020 04:00,48.6,
29-May-2020 05:00,39.4,
29-May-2020 06:00,24.2,
29-May-2020 07:00,25.1,
29-May-2020 08:00,23.3,
29-May-2020 09:00,26.3,
29-May-2020 10:00,11.5,
29-May-2020 11:00,19.6,
29-May-2020 12:00,18.2,
29-May-2020 13:00,22,
29-May-2020 14:00,27.7,
29-May-2020 15:00,23.2,
29-May-2020 16:00,13.4,
29-May-2020 17:00,39.7,
29-May-2020 18:00,57,
29-May-2020 19:00,29.9,
29-May-2020 20:00,17.8,
29-May-2020 21:00,21.9,
29-May-2020 22:00,31.4,
29-May-2020 23:00,35.4,
30-May-2020 00:00,18.8,
30-May-2020 01:00,13.1,
30-May-2020 02:00,25.6,
30-May-2020 03:00,22.5,
30-May-2020 04:00,21.3,
30-May-2020 05:00,29.5,
30-May-2020 06:00,14.2,
30-May-2020 07:00,9.3,
30-May-2020 08:00,18.9,
30-May-2020 09:00,,AV
30-May-2020 10:00,,AV
30-May-2020 11:00,,AV
30-May-2020 12:00,,AV
30-May-2020 13:00,,AV
30-May-2020 14:00,23.1,
30-May-2020 15:00,22.6,
30-May-2020 16:00,18.5,
30-May-2020 17:00,6.1,
30-May-2020 18:00,17.9,
30-May-2020 19:00,10.5,
30-May-2020 20:00,13.2,
30-May-2020 21:00,24.2,
30-May-2020 22:00,17.7,
30-May-2020 23:00,17.9,
31-May-2020 00:00,16.7,
31-May-2020 01:00,16.1,
31-May-2020 02:00,20,
31-May-2020 03:00,18.8,
31-May-2020 04:00,21,
31-May-2020 05:00,20.4,
31-May-2020 06:00,16.6,
31-May-2020 07:00,9.3,
31-May-2020 08:00,9.7,
31-May-2020 09:00,11.4,
31-May-2020 10:00,34,
31-May-2020 11:00,10.4,
31-May-2020 12:00,17.5,
31-May-2020 13:00,14.8,
31-May-2020 14:00,22,
31-May-2020 15:00,19,
31-May-2020 16:00,11.6,
31-May-2020 17:00,17,
31-May-2020 18:00,16.9,
31-May-2020 19:00,16,
31-May-2020 20:00,21.3,
31-May-2020 21:00,16.9,
31-May-2020 22:00,18.6,
31-May-2020 23:00,22.3,
